Showing default

QIANFAN-36, 61569

Orbit data source: Space-Track

QIANFAN-36, 61569 is a Chinese payload satellite in LEO that was launched on Tue, 15 Oct 2024 UTC via a CHANG ZHENG 6A launch vehicle from the Taiyaun Space Center, China (TSC). Payloads include a variety of satellites, spacecraft, and rockets equipped with specific instruments for various scientific and technological missions. These include communications satellites like Starlink; space stations such as the ISS; scientific satellites like the Hubble; Earth observation satellites from companies like Planet Labs, Umbra, and HawkEye 360; GPS; miniature CubeSats for education and research; and military/defense satellites.

Loading next visibility...
QIANFAN-36 details
Identifier
61569, 2024-185T
Orbit
LEO
Last TLE update10 hours ago
Origin
Flag of CNYUANX (CN / PRC)
ManufacturerGESIH/SECM
MissionOperational Commercial Communications
Bus & MotorQIANFAN, Unknown motor
Mass300 kg wet, ~300 kg dry
Launch date (UTC)
2024-10-15 (4 months ago)
Launch vehicle
CHANG ZHENG 6A
Launch site
Taiyaun Space Center, China (TSC)
Object type
Payload
Rocket body
Debris
Shape & HBRBox + 1 Pan, 10 m
Radar Cross Section13.200 m², Large (>1 m²)

Expand to show TLE details & history

TLE from 10 hours ago
0 QIANFAN-36
1 61569U 24185T   25035.80485499  .00000316  00000-0  22694-3 0  9995
2 61569  88.9875 113.5627 0004925 200.9882 159.1092 13.94447082 25745
Epoch: 2025-02-04T19:18Z
Definitive object data (Epoch: 2025-02-04T19:18:59.471Z)
Latitude-0.00003°
Longitude48.61002°
Altitude919.46 km
Speed7.39 km/s
True Right ascension07h 34m 15s
True Declination0° 00' 00"
Sunlit
Object was in full shadow at TLE epoch
Visualization TLE readout
Latitude-11.31781°
Longitude-131.23205°
Altitude914.715 km
Speed7.396 km/s
Apparent Right ascension19h 17m 37s
Apparent Declination-24° 35' 54"
Sunlit
Object is in daylight
Visualization observer readout
Local Sidereal Time06:52:23
Azimuth339.032° N
Elevation-73.792°
Doppler factor1
Orbital elements
Apogee altitude913.665 km
Perigee altitude906.486 km
Semi-major axis7,288.213 km
Eccentricity0.0004925
Inclination88.9875°
RAAN113.5627°
Arg. of periapsis200.9882°
True anomaly159.12931°
Mean anomaly159.1092°
Eccentric anomaly159.11926°
Mean motion3.48828 °/min
BSTAR0.00022694
Orbital period103.2 mins
Loading maneuver chart data...
Loading historical data...
Loading historical data...
Loading historical data...
Loading historical data...
Loading historical data...
Loading historical data...
Loading historical data...

QIANFAN-36 Visibility forecast

Observer location: undefined°, undefined

Span
Click to sort rows by Start time (UTC) header in descending order
Start Az.
Max El. time (UTC)
Max El. Az.
Max El.
End time (UTC)
End Az.
10 mins2025-02-05 05:45:28.908Z189.155° SSW2025-02-05 05:50:28.908Z275.927° WNW42.814°2025-02-05 05:55:28.908Z352.482° N
8 mins2025-02-05 16:35:28.908Z29.282° NE2025-02-05 16:39:28.908Z93.385° ESE29.863°2025-02-05 16:43:28.908Z144.834° SSE
8 mins2025-02-05 18:18:28.908Z331.166° NNW2025-02-05 18:22:28.908Z274.537° WNW26.523°2025-02-05 18:26:28.908Z225.757° WSW
6 mins2025-02-06 04:11:28.908Z109.855° ESE2025-02-06 04:14:28.908Z73.261° E18.975°2025-02-06 04:17:28.908Z38.238° NE
|